QPF
0.00 0.01 0.00 0.00 0.01 0.02 0.03 0.02 0.01 0.01 0.01 0.00 0.00 0.00 0.02 0.03 0.03 0.03 0.01 0.00 0.00 0.00 0.00 0.00 0.00 0.00 0.00 0.00 0.00 0.00 0.00 0.00 0.00 0.00 0.00 0.00 0.00 0.00 0.00 0.00 0.00 0.00 0.00
0.00 0.00 0.00 0.00 0.00 0.00 0.01 0.01 0.02 0.02 0.01 0.02 0.00 0.00 0.00 0.00 0.01 0.01 0.00 0.00 0.00 0.00 0.00 0.00 0.00 0.00 0.00 0.00 0.00 0.00 0.00 0.00 0.00 0.00 0.00 0.00 0.00 0.00 0.00 0.00 0.00 0.00 0.00
0.00 0.00 0.00 0.00 0.00 0.00 0.00 0.00 0.01 0.01 0.01 0.00 0.00 0.00 0.00 0.00 0.00 0.00 0.00 0.00 0.00 0.00 0.00 0.00 0.00 0.00 0.00 0.00 0.00 0.00 0.00 0.00 0.00 0.00 0.00 0.00 0.00 0.00 0.00 0.00 0.00 0.00 0.00
0.00 0.00 0.00 0.00 0.00 0.00 0.00 0.00 0.00 0.00 0.00 0.00 0.00 0.00 0.00 0.00 0.00 0.00 0.00 0.00 0.00 0.00 0.00 0.00 0.00 0.00 0.00 0.00 0.00 0.00 0.00 0.00 0.00 0.00 0.00 0.00 0.00 0.00 0.00 0.00 0.00 0.00 0.00
0.00 0.00 0.00 0.00 0.00 0.00 0.00 0.00 0.00 0.00 0.00 0.00 0.00 0.00 0.00 0.00 0.00 0.00 0.00 0.00 0.00 0.00 0.00 0.00 0.00 0.00 0.00 0.00 0.00 0.00 0.00 0.00 0.00 0.00 0.00 0.00 0.00 0.00 0.00 0.00 0.00 0.00 0.00
0.00 0.00 0.00 0.00 0.00 0.00 0.00 0.00 0.00 0.00 0.00 0.00 0.00 0.00 0.00 0.00 0.00 0.00 0.00 0.00 0.00 0.00 0.00 0.00 0.00 0.00 0.00 0.00 0.00 0.00 0.00 0.00 0.00 0.00 0.00 0.00 0.00 0.00 0.00 0.00 0.00 0.00 0.00
0.00 0.00 0.00 0.00 0.00 0.00 0.00 0.00 0.00 0.00 0.00 0.00 0.00 0.00 0.00 0.00 0.00 0.00 0.00 0.00 0.00 0.00 0.00 0.00 0.00 0.00 0.00 0.00 0.00 0.00 0.00 0.00 0.00 0.00 0.00 0.00 0.00 0.00 0.00 0.00 0.00 0.00 0.00
0.00 0.00 0.00 0.00 0.00 0.00 0.00 0.00 0.00 0.00 0.00 0.00 0.00 0.00 0.00 0.00 0.00 0.00 0.00 0.00 0.00 0.00 0.00 0.00 0.00 0.00 0.00 0.00 0.00 0.00 0.00 0.00 0.00 0.00 0.00 0.00 0.00 0.00 0.00 0.00 0.00 0.00 0.00
0.00 0.00 0.00 0.00 0.00 0.00 0.00 0.00 0.00 0.00 0.00 0.00 0.00 0.00 0.00 0.00 0.00 0.00 0.00 0.00 0.00 0.00 0.00 0.00 0.00 0.00 0.00 0.00 0.00 0.00 0.00 0.00 0.00 0.00 0.00 0.00 0.00 0.00 0.00 0.00 0.00 0.00 0.00
0.00 0.00 0.00 0.00 0.00 0.00 0.00 0.00 0.00 0.00 0.00 0.00 0.00 0.00 0.00 0.00 0.00 0.00 0.00 0.00 0.00 0.00 0.00 0.00 0.00 0.00 0.00 0.00 0.00 0.00 0.00 0.00 0.00 0.00 0.00 0.00 0.00 0.00 0.00 0.00 0.00 0.00 0.00
0.00 0.00 0.00 0.00 0.00 0.00 0.00 0.00 0.00 0.00 0.00 0.00 0.00 0.00 0.00 0.00 0.00 0.00 0.00 0.00 0.00 0.00 0.00 0.00 0.00 0.00 0.00 0.00 0.00 0.00 0.00 0.00 0.00 0.00 0.00 0.00 0.00 0.00 0.00 0.00 0.00 0.00 0.00
0.00 0.00 0.00 0.00 0.00 0.00 0.00 0.00 0.00 0.00 0.00 0.00 0.00 0.00 0.00 0.00 0.00 0.00 0.00 0.00 0.00 0.00 0.00 0.00 0.00 0.00 0.00 0.00 0.00 0.00 0.00 0.00 0.00 0.00 0.00 0.00 0.00 0.00 0.00 0.00 0.00 0.00 0.00
0.00 0.00 0.00 0.00 0.00 0.00 0.00 0.00 0.00 0.00 0.00 0.00 0.00 0.00 0.00 0.00 0.00 0.00 0.00 0.00 0.00 0.00 0.00 0.00 0.00 0.00 0.00 0.00 0.00 0.00 0.00 0.00 0.00 0.00 0.00 0.00 0.00 0.00 0.00 0.00 0.00 0.00 0.00
0.00 0.00 0.00 0.00 0.00 0.00 0.00 0.00 0.00 0.00 0.00 0.00 0.00 0.00 0.00 0.00 0.00 0.00 0.00 0.00 0.00 0.00 0.00 0.00 0.00 0.00 0.00 0.00 0.00 0.00 0.00 0.00 0.00 0.00 0.00 0.00 0.00 0.00 0.00 0.00 0.00 0.00 0.00
0.00 0.00 0.00 0.00 0.00 0.00 0.00 0.00 0.00 0.00 0.00 0.00 0.00 0.00 0.00 0.00 0.00 0.00 0.00 0.00 0.00 0.00 0.00 0.00 0.00 0.00 0.00 0.00 0.00 0.00 0.00 0.00 0.00 0.00 0.00 0.00 0.00 0.00 0.00 0.00 0.00 0.00 0.00
0.00 0.00 0.00 0.00 0.00 0.00 0.00 0.00 0.00 0.00 0.00 0.00 0.00 0.00 0.00 0.00 0.00 0.00 0.00 0.00 0.00 0.00 0.00 0.00 0.00 0.00 0.00 0.00 0.00 0.00 0.00 0.00 0.00 0.00 0.00 0.00 0.00 0.00 0.00 0.00 0.00 0.00 0.00
0.00 0.00 0.00 0.00 0.00 0.00 0.00 0.00 0.00 0.00 0.00 0.00 0.00 0.00 0.00 0.00 0.00 0.00 0.00 0.00 0.01 0.00 0.00 0.00 0.00 0.00 0.00 0.00 0.00 0.00 0.00 0.00 0.00 0.00 0.00 0.00 0.00 0.00 0.00 0.00 0.00 0.00 0.00
0.00 0.00 0.00 0.00 0.00 0.00 0.00 0.00 0.00 0.00 0.00 0.00 0.00 0.00 0.00 0.00 0.00 0.00 0.00 0.00 0.01 0.00 0.00 0.00 0.00 0.00 0.00 0.00 0.00 0.00 0.00 0.00 0.00 0.00 0.00 0.00 0.00 0.00 0.00 0.00 0.00 0.00 0.00
0.00 0.00 0.00 0.00 0.00 0.00 0.00 0.00 0.00 0.00 0.00 0.00 0.00 0.00 0.00 0.00 0.00 0.00 0.00 0.00 0.00 0.00 0.00 0.00 0.00 0.00 0.00 0.00 0.00 0.00 0.00 0.00 0.00 0.00 0.00 0.00 0.00 0.00 0.00 0.00 0.00 0.00 0.00
0.00 0.00 0.00 0.00 0.00 0.00 0.00 0.00 0.00 0.00 0.00 0.00 0.00 0.00 0.00 0.00 0.00 0.00 0.00 0.00 0.00 0.00 0.00 0.00 0.00 0.00 0.00 0.00 0.00 0.00 0.00 0.00 0.00 0.00 0.00 0.00 0.00 0.00 0.00 0.00 0.00 0.00 0.00
0.00 0.00 0.00 0.00 0.00 0.00 0.00 0.00 0.00 0.00 0.00 0.00 0.00 0.00 0.00 0.00 0.00 0.00 0.00 0.00 0.00 0.00 0.00 0.00 0.00 0.00 0.00 0.00 0.00 0.00 0.00 0.00 0.00 0.00 0.00 0.00 0.00 0.00 0.00 0.00 0.00 0.00 0.00
0.00 0.00 0.00 0.00 0.00 0.00 0.00 0.00 0.00 0.00 0.00 0.00 0.00 0.00 0.00 0.00 0.00 0.00 0.00 0.00 0.00 0.00 0.00 0.00 0.00 0.00 0.00 0.00 0.00 0.00 0.00 0.00 0.00 0.00 0.00 0.00 0.00 0.00 0.00 0.00 0.00 0.00 0.00
0.00 0.00 0.00 0.00 0.00 0.00 0.00 0.00 0.00 0.00 0.00 0.00 0.00 0.00 0.00 0.00 0.00 0.00 0.00 0.00 0.00 0.00 0.00 0.00 0.00 0.00 0.00 0.00 0.00 0.00 0.00 0.00 0.00 0.00 0.00 0.00 0.00 0.00 0.00 0.00 0.00 0.00 0.00
0.00 0.00 0.00 0.00 0.00 0.00 0.00 0.00 0.00 0.00 0.00 0.00 0.00 0.00 0.00 0.00 0.00 0.00 0.00 0.00 0.00 0.00 0.00 0.00 0.00 0.00 0.00 0.00 0.00 0.00 0.00 0.00 0.00 0.00 0.00 0.00 0.00 0.00 0.00 0.00 0.00 0.00 0.00
0.00 0.00 0.00 0.00 0.00 0.00 0.00 0.00 0.00 0.00 0.00 0.00 0.00 0.00 0.00 0.00 0.00 0.00 0.00 0.00 0.00 0.00 0.00 0.00 0.00 0.00 0.00 0.00 0.00 0.00 0.00 0.00 0.00 0.00 0.00 0.00 0.00 0.00 0.00 0.00 0.00 0.00 0.00
0.00 0.00 0.00 0.00 0.00 0.00 0.00 0.00 0.00 0.00 0.00 0.00 0.00 0.00 0.00 0.00 0.00 0.00 0.00 0.00 0.00 0.00 0.00 0.00 0.00 0.00 0.00 0.00 0.00 0.00 0.00 0.00 0.00 0.00 0.00 0.00 0.00 0.00 0.00 0.00 0.00 0.00 0.00
MSLP
999.86 999.78 999.51 999.86 1000.06 1000.31 1000.84 1001.53 1002.10 1002.84 1003.42 1004.31 1005.24 1005.95 1006.78 1007.54 1008.48 1008.53 1009.95 1009.92 1010.43 1011.30 1012.01 1012.66 1013.30 1013.98 1014.87 1015.63 1016.29 1016.92 1017.59 1017.99 1019.58 1020.86 1021.00 1021.22 1021.48 1021.63 1021.68 1021.84 1022.12 1022.38 1022.58
1000.89 1000.16 1000.23 1000.72 1000.97 1001.21 1001.58 1002.01 1002.07 1002.75 1003.40 1004.06 1004.96 1005.78 1006.23 1007.05 1007.98 1008.13 1009.25 1009.93 1010.19 1010.85 1011.52 1012.30 1012.87 1013.61 1014.45 1014.93 1015.80 1016.64 1017.11 1017.46 1018.51 1019.96 1020.78 1021.17 1021.46 1021.84 1021.96 1022.06 1022.24 1022.31 1022.57
1001.64 1001.55 1001.82 1001.94 1002.04 1002.37 1002.65 1002.62 1002.46 1002.79 1003.36 1004.08 1004.46 1005.22 1006.13 1006.73 1007.42 1007.79 1008.48 1009.16 1009.71 1010.25 1010.95 1011.67 1012.24 1013.01 1013.92 1014.49 1015.09 1015.96 1016.61 1017.22 1017.87 1019.01 1020.42 1020.92 1021.35 1021.66 1022.08 1022.30 1022.35 1022.34 1022.28
1002.95 1003.06 1003.23 1003.28 1003.25 1003.53 1003.47 1003.35 1003.14 1003.18 1003.52 1003.84 1004.34 1004.75 1005.31 1006.08 1006.60 1007.29 1007.95 1008.73 1009.24 1009.92 1010.50 1011.14 1011.86 1012.44 1013.01 1013.73 1014.40 1015.10 1016.04 1016.86 1017.52 1018.33 1019.55 1020.31 1020.89 1021.29 1021.59 1021.98 1022.31 1022.24 1022.12
1004.42 1004.81 1004.74 1004.32 1004.09 1004.17 1004.30 1004.14 1003.84 1003.78 1003.82 1004.10 1004.41 1004.68 1005.05 1005.35 1006.13 1006.97 1007.45 1008.29 1008.94 1009.61 1010.12 1010.71 1011.30 1011.88 1012.45 1013.09 1013.77 1014.48 1015.34 1016.36 1017.10 1017.77 1018.72 1019.56 1020.13 1020.80 1020.91 1021.09 1021.62 1022.08 1022.14
1005.28 1006.11 1005.76 1005.45 1005.22 1005.16 1005.11 1004.82 1004.54 1004.62 1004.46 1004.51 1004.71 1005.07 1005.48 1005.64 1005.98 1006.25 1006.51 1007.85 1008.46 1009.13 1009.82 1010.39 1010.80 1011.53 1012.10 1012.44 1012.99 1013.80 1014.03 1014.96 1016.13 1016.88 1017.86 1018.33 1018.82 1019.38 1020.06 1020.66 1021.43 1022.26 1022.61
1006.88 1006.74 1006.43 1006.55 1006.77 1006.54 1005.98 1005.55 1005.42 1005.43 1005.19 1005.32 1005.12 1005.23 1005.51 1005.62 1005.95 1006.50 1006.88 1007.59 1008.14 1008.71 1009.33 1009.86 1010.45 1010.97 1011.84 1012.49 1012.73 1013.27 1013.92 1014.18 1014.44 1015.22 1016.48 1017.26 1017.92 1018.34 1019.15 1020.09 1020.97 1021.62 1022.11
1007.78 1007.89 1007.75 1008.22 1007.85 1007.32 1006.83 1006.47 1006.19 1006.06 1005.95 1005.80 1005.67 1005.66 1005.76 1005.89 1006.04 1006.37 1006.90 1007.42 1007.90 1008.49 1009.01 1009.37 1009.71 1010.30 1011.34 1012.06 1012.41 1013.07 1013.65 1014.20 1014.65 1015.03 1015.87 1016.73 1017.23 1018.00 1018.51 1019.37 1020.29 1021.36 1021.91
1009.07 1009.20 1009.44 1009.09 1008.78 1008.24 1007.85 1007.48 1007.10 1006.75 1006.39 1006.21 1006.14 1006.10 1006.16 1006.22 1006.19 1006.45 1006.82 1007.38 1007.83 1008.23 1008.53 1008.95 1009.42 1010.15 1010.76 1011.41 1011.91 1012.62 1013.61 1013.99 1014.53 1014.89 1015.65 1016.36 1016.79 1017.53 1018.56 1019.48 1020.40 1021.21 1021.78
1010.62 1010.52 1010.29 1009.71 1009.22 1008.97 1008.76 1008.32 1007.97 1007.59 1007.29 1006.95 1006.69 1006.57 1006.42 1006.46 1006.39 1006.44 1006.66 1007.23 1007.71 1008.16 1008.63 1009.02 1009.33 1009.82 1010.36 1010.94 1011.44 1012.03 1013.08 1013.54 1014.28 1015.18 1015.84 1016.33 1016.85 1017.49 1018.10 1018.94 1019.62 1020.48 1021.24
1011.68 1011.15 1010.57 1010.08 1009.79 1009.65 1009.41 1009.11 1008.78 1008.38 1008.09 1007.84 1007.60 1007.39 1007.12 1006.88 1006.68 1006.54 1006.59 1006.98 1007.46 1008.01 1008.33 1008.77 1009.13 1009.51 1009.94 1010.36 1011.00 1011.62 1012.20 1013.00 1013.88 1014.76 1015.45 1016.35 1017.04 1017.47 1018.10 1018.77 1019.11 1019.57 1020.31
1011.91 1011.41 1011.14 1010.88 1010.50 1010.29 1010.13 1009.86 1009.54 1009.12 1008.90 1008.74 1008.42 1008.01 1007.69 1007.29 1006.74 1006.45 1006.46 1006.85 1007.25 1007.83 1008.28 1008.69 1009.02 1009.23 1009.62 1010.18 1010.91 1011.54 1012.10 1012.85 1013.63 1014.55 1015.38 1016.19 1016.80 1017.49 1018.06 1018.59 1019.26 1019.44 1019.75
1012.70 1012.27 1011.89 1011.49 1011.24 1010.95 1010.78 1010.58 1010.27 1009.90 1009.69 1009.51 1009.23 1008.92 1008.44 1007.80 1007.33 1006.75 1006.77 1007.11 1007.47 1007.97 1008.25 1008.55 1008.83 1009.08 1009.50 1010.14 1010.80 1011.35 1012.02 1012.75 1013.50 1014.41 1015.17 1015.94 1016.58 1017.40 1018.11 1018.67 1019.32 1019.50 1020.04
1013.40 1012.97 1012.55 1012.29 1011.88 1011.43 1011.12 1010.95 1010.81 1010.67 1010.41 1009.97 1009.69 1009.48 1009.14 1008.57 1008.21 1007.87 1007.60 1007.61 1007.75 1008.10 1008.31 1008.59 1008.85 1009.13 1009.67 1010.26 1011.03 1011.56 1012.20 1012.79 1013.48 1014.20 1014.97 1015.79 1016.86 1017.52 1018.35 1018.80 1019.46 1019.75 1020.17
1014.19 1013.74 1013.38 1012.98 1012.65 1012.26 1011.77 1011.27 1010.83 1010.65 1010.52 1009.98 1009.82 1009.68 1009.72 1009.25 1008.71 1008.40 1008.16 1008.07 1008.30 1008.35 1008.54 1008.65 1008.99 1009.42 1010.00 1010.60 1011.20 1011.84 1012.57 1013.12 1013.79 1014.43 1015.11 1015.92 1016.93 1017.58 1018.34 1018.75 1019.27 1019.73 1020.39
1015.16 1014.69 1014.37 1013.95 1013.48 1012.95 1012.46 1011.69 1010.94 1010.46 1010.15 1009.95 1009.70 1009.44 1009.40 1009.06 1008.59 1008.35 1008.28 1008.15 1008.28 1008.48 1008.83 1009.12 1009.51 1009.75 1010.21 1010.75 1011.35 1012.01 1012.66 1013.30 1013.92 1014.52 1015.22 1016.09 1016.93 1017.60 1018.25 1018.88 1019.39 1020.02 1020.70
1015.85 1015.42 1014.97 1014.62 1014.30 1013.92 1013.39 1013.10 1012.37 1011.13 1010.54 1010.13 1010.00 1009.64 1009.29 1008.94 1008.55 1008.25 1008.20 1008.25 1008.26 1008.59 1009.09 1009.55 1009.87 1010.14 1010.54 1011.06 1011.64 1012.22 1012.88 1013.44 1013.98 1014.64 1015.35 1016.11 1016.84 1017.57 1018.29 1018.99 1019.67 1020.40 1021.22
1016.10 1015.76 1015.48 1015.24 1014.90 1014.48 1014.05 1013.63 1013.34 1013.13 1012.32 1011.49 1010.50 1010.19 1009.75 1009.09 1008.48 1008.20 1008.08 1008.22 1008.37 1008.81 1009.28 1009.79 1010.18 1010.52 1010.94 1011.31 1011.85 1012.52 1013.21 1013.80 1014.31 1014.87 1015.51 1016.14 1016.82 1017.60 1018.55 1019.38 1020.12 1020.82 1021.67
1016.38 1016.02 1015.78 1015.46 1015.08 1014.69 1014.35 1013.96 1013.56 1013.38 1013.27 1012.72 1011.77 1010.55 1010.32 1009.46 1008.66 1008.39 1007.83 1008.33 1008.84 1009.17 1009.56 1009.98 1010.31 1010.71 1011.19 1011.66 1012.04 1012.62 1013.26 1013.97 1014.58 1015.17 1015.87 1016.54 1017.28 1017.98 1018.86 1019.61 1020.47 1021.16 1021.94
1016.51 1016.23 1015.85 1015.39 1015.06 1014.74 1014.46 1014.29 1014.09 1013.89 1013.69 1013.36 1012.78 1011.78 1011.19 1010.33 1009.89 1009.57 1009.22 1009.09 1009.38 1009.66 1009.90 1010.27 1010.54 1010.92 1011.27 1011.73 1012.27 1012.92 1013.79 1014.40 1015.09 1015.76 1016.39 1016.96 1017.73 1018.29 1019.15 1019.95 1020.78 1021.58 1022.47
1016.33 1016.06 1015.86 1015.52 1015.12 1014.88 1014.64 1014.52 1014.27 1014.14 1014.04 1013.66 1013.02 1012.13 1011.00 1011.19 1011.04 1010.67 1010.41 1010.19 1010.16 1010.35 1010.51 1010.59 1010.83 1011.05 1011.41 1011.92 1012.62 1013.31 1014.09 1014.80 1015.52 1016.08 1016.75 1017.47 1018.11 1018.98 1019.64 1020.29 1021.15 1021.92 1022.79
1016.10 1015.88 1015.71 1015.50 1015.12 1014.79 1014.53 1014.28 1014.25 1014.16 1014.01 1013.86 1013.10 1012.50 1011.52 1011.88 1011.71 1011.43 1011.16 1010.94 1010.68 1010.58 1010.66 1010.83 1011.03 1011.33 1011.72 1012.17 1012.76 1013.49 1014.14 1014.92 1015.72 1016.40 1017.06 1017.70 1018.44 1019.25 1020.06 1020.93 1021.79 1022.64 1023.30
1015.75 1015.53 1015.31 1015.10 1014.88 1014.63 1014.40 1014.12 1013.93 1013.89 1013.75 1013.59 1013.40 1013.05 1012.69 1012.51 1012.34 1012.21 1012.02 1011.42 1011.21 1011.13 1011.10 1011.17 1011.39 1011.79 1012.12 1012.54 1012.97 1013.47 1014.16 1014.89 1015.58 1016.28 1017.13 1017.92 1018.73 1019.54 1020.32 1021.19 1022.02 1022.99 1023.79
1015.35 1015.17 1015.00 1014.72 1014.50 1014.27 1014.16 1014.01 1013.75 1013.57 1013.48 1013.34 1013.23 1013.17 1013.08 1012.97 1012.89 1012.69 1012.20 1011.94 1011.76 1011.64 1011.63 1011.66 1011.75 1012.06 1012.56 1013.09 1013.53 1013.96 1014.43 1015.06 1015.69 1016.30 1016.89 1017.78 1018.82 1019.78 1020.66 1021.61 1022.42 1023.45 1024.34
1014.83 1014.68 1014.59 1014.42 1014.19 1013.91 1013.64 1013.44 1013.34 1013.22 1013.14 1013.03 1012.92 1012.95 1013.06 1013.09 1012.94 1012.57 1012.34 1012.26 1012.24 1012.25 1012.33 1012.34 1012.26 1012.52 1012.98 1013.51 1014.02 1014.55 1015.05 1015.55 1016.07 1016.53 1017.15 1017.90 1018.84 1019.87 1020.84 1021.71 1022.79 1023.87 1024.73
1014.09 1014.00 1013.87 1013.76 1013.60 1013.38 1013.14 1012.93 1012.71 1012.57 1012.51 1012.47 1012.47 1012.50 1012.80 1012.93 1012.64 1012.51 1012.45 1012.50 1012.59 1012.80 1013.02 1013.15 1013.01 1013.10 1013.44 1013.91 1014.39 1014.94 1015.44 1015.93 1016.49 1016.90 1017.44 1018.11 1019.10 1020.21 1021.04 1022.00 1023.02 1023.93 1024.94
Thickness
5455 5468 5480 5485 5495 5502 5511 5515 5516 5518 5521 5521 5520 5521 5526 5527 5529 5532 5525 5532 5536 5535 5535 5536 5537 5536 5534 5533 5531 5530 5530 5530 5524 5513 5515 5515 5515 5514 5515 5515 5513 5511 5509
5436 5453 5460 5465 5473 5479 5488 5495 5501 5504 5509 5512 5510 5510 5516 5519 5520 5527 5523 5521 5525 5526 5528 5526 5529 5526 5525 5526 5523 5521 5521 5521 5517 5509 5504 5504 5504 5502 5503 5502 5500 5499 5497
5421 5432 5438 5445 5453 5458 5464 5476 5486 5492 5497 5498 5504 5503 5504 5506 5508 5513 5516 5516 5517 5519 5518 5518 5518 5516 5515 5516 5516 5513 5510 5508 5507 5502 5494 5493 5492 5491 5487 5486 5486 5485 5485
5402 5411 5418 5425 5434 5439 5447 5456 5467 5475 5481 5488 5493 5498 5499 5498 5500 5501 5503 5505 5506 5506 5508 5508 5508 5509 5510 5508 5506 5505 5500 5497 5495 5493 5486 5484 5481 5479 5476 5474 5472 5473 5473
5381 5387 5397 5408 5417 5423 5429 5438 5447 5458 5467 5471 5478 5483 5487 5493 5491 5490 5493 5494 5495 5497 5498 5499 5500 5500 5500 5499 5497 5495 5491 5488 5486 5483 5477 5473 5472 5467 5469 5466 5464 5460 5458
5366 5369 5378 5388 5398 5405 5413 5422 5431 5437 5447 5455 5462 5465 5469 5475 5481 5487 5488 5483 5483 5484 5486 5487 5490 5489 5489 5491 5491 5487 5489 5485 5479 5476 5470 5469 5467 5463 5458 5456 5450 5442 5440
5348 5355 5363 5369 5374 5382 5393 5403 5410 5418 5428 5434 5443 5450 5455 5460 5466 5469 5471 5471 5471 5474 5476 5478 5479 5481 5476 5475 5477 5477 5475 5477 5479 5476 5468 5462 5457 5455 5453 5445 5438 5432 5427
5335 5339 5346 5347 5353 5362 5374 5383 5392 5400 5408 5416 5424 5431 5437 5442 5448 5452 5455 5456 5459 5463 5464 5468 5470 5470 5466 5464 5464 5463 5462 5460 5461 5462 5454 5450 5448 5443 5442 5436 5427 5419 5413
5320 5323 5324 5330 5337 5345 5353 5363 5372 5381 5390 5398 5405 5413 5418 5424 5431 5435 5439 5441 5444 5448 5451 5453 5455 5454 5455 5455 5453 5451 5447 5447 5446 5445 5442 5438 5436 5431 5425 5418 5410 5406 5398
5301 5306 5310 5318 5326 5330 5334 5342 5352 5362 5370 5378 5387 5393 5401 5406 5413 5419 5423 5425 5428 5432 5435 5436 5438 5440 5438 5439 5440 5441 5436 5436 5433 5427 5424 5422 5419 5416 5414 5408 5401 5395 5389
5288 5294 5302 5308 5313 5318 5322 5328 5335 5342 5349 5358 5367 5373 5381 5388 5396 5403 5408 5411 5413 5414 5418 5420 5422 5424 5425 5426 5426 5427 5427 5423 5419 5414 5412 5407 5404 5403 5398 5393 5391 5387 5380
5280 5287 5291 5295 5300 5304 5308 5314 5319 5325 5331 5336 5342 5352 5361 5370 5379 5387 5393 5396 5398 5399 5402 5403 5405 5407 5409 5410 5410 5410 5410 5406 5403 5400 5396 5393 5391 5387 5382 5379 5373 5373 5371
5268 5274 5278 5283 5287 5291 5294 5299 5304 5309 5314 5320 5327 5331 5339 5351 5359 5370 5375 5378 5381 5382 5384 5386 5389 5392 5394 5394 5394 5393 5392 5390 5388 5385 5382 5378 5374 5369 5367 5363 5358 5357 5354
5258 5263 5267 5270 5275 5279 5284 5287 5289 5292 5297 5305 5310 5314 5320 5329 5337 5345 5353 5358 5362 5363 5367 5370 5373 5376 5377 5377 5374 5375 5374 5372 5370 5368 5365 5360 5355 5352 5346 5345 5341 5340 5338
5248 5252 5254 5257 5259 5264 5270 5274 5281 5283 5286 5295 5296 5296 5302 5309 5321 5329 5335 5339 5341 5346 5349 5354 5357 5358 5358 5358 5356 5356 5353 5352 5351 5348 5346 5343 5339 5336 5331 5330 5327 5325 5320
5233 5236 5237 5241 5244 5250 5254 5261 5270 5276 5280 5284 5288 5293 5294 5302 5310 5316 5321 5326 5329 5333 5332 5334 5336 5341 5342 5342 5342 5340 5338 5337 5334 5332 5330 5327 5323 5321 5317 5314 5312 5309 5305
5212 5217 5218 5220 5223 5228 5232 5236 5243 5256 5265 5270 5274 5279 5284 5289 5296 5302 5306 5310 5315 5318 5315 5318 5322 5325 5326 5326 5326 5324 5321 5320 5318 5317 5315 5313 5310 5308 5305 5303 5298 5292 5286
5196 5199 5198 5198 5198 5203 5209 5215 5218 5223 5230 5242 5255 5261 5267 5275 5283 5289 5293 5296 5300 5300 5300 5301 5303 5305 5307 5308 5308 5306 5304 5303 5303 5303 5301 5299 5297 5294 5287 5285 5279 5275 5268
5191 5190 5185 5183 5185 5187 5188 5193 5198 5203 5208 5214 5225 5242 5247 5259 5270 5275 5283 5279 5280 5282 5284 5286 5288 5289 5290 5290 5292 5291 5291 5289 5288 5287 5284 5283 5280 5277 5269 5268 5264 5261 5256
5180 5181 5180 5176 5176 5176 5177 5177 5180 5184 5188 5193 5200 5212 5223 5237 5245 5252 5259 5264 5265 5266 5268 5270 5272 5274 5276 5277 5277 5275 5273 5272 5270 5269 5267 5266 5263 5262 5258 5253 5250 5245 5240
5174 5172 5171 5165 5164 5164 5164 5165 5166 5166 5171 5176 5181 5193 5214 5213 5220 5227 5238 5244 5247 5247 5250 5254 5257 5259 5261 5261 5261 5259 5257 5255 5254 5253 5252 5250 5249 5245 5243 5241 5236 5234 5230
5166 5162 5158 5155 5153 5153 5154 5156 5155 5156 5157 5159 5169 5176 5194 5192 5199 5208 5217 5224 5229 5234 5238 5241 5243 5245 5247 5247 5247 5245 5245 5243 5240 5239 5238 5237 5235 5233 5230 5227 5223 5219 5216
5157 5153 5150 5146 5143 5143 5142 5143 5145 5145 5148 5148 5151 5157 5163 5171 5179 5186 5195 5204 5211 5217 5222 5227 5229 5230 5232 5233 5234 5234 5233 5232 5231 5230 5227 5226 5224 5222 5219 5216 5212 5206 5203
5146 5142 5139 5137 5135 5131 5128 5129 5130 5134 5135 5138 5140 5144 5149 5154 5162 5169 5175 5184 5192 5198 5205 5210 5213 5215 5216 5217 5219 5220 5220 5220 5219 5218 5218 5216 5212 5208 5205 5201 5198 5192 5187
5134 5129 5125 5123 5124 5126 5125 5123 5123 5121 5122 5125 5130 5134 5138 5142 5147 5153 5159 5166 5172 5179 5185 5190 5195 5198 5200 5202 5203 5203 5204 5204 5205 5206 5205 5204 5200 5196 5192 5190 5184 5178 5174
5122 5117 5113 5109 5108 5112 5114 5116 5118 5120 5120 5123 5125 5125 5128 5132 5136 5140 5144 5148 5155 5161 5165 5170 5176 5180 5183 5185 5187 5188 5190 5191 5192 5192 5192 5191 5187 5182 5180 5177 5172 5168 5164